Weather in Trostianets

Ukraine / Vinnytsia Region     48˚21′28″N   28˚13′54″E
temp.,
°C
wind,
m/s
gust,
m/s
humid.,
%
clouds,
%
prec.,
mm/h
press.,
hPa
HPBL,
m
1 december, tue
tue123:00−2˚n23860 0.0 102862
02:00−3˚n23880 0.0 102755
05:00−3˚n23890 0.0 102771
08:00−4˚n24900 0.0 102799
11:00nne46670 0.0 1027520
14:00+2˚nne466424 0.0 1026622
17:00−1˚nne358188 0.0 1026126
20:00−2˚nne269393 0.0 1026230
2 december, wed
wed223:00−1˚nne249894 0.4 1026151
02:00−1˚n229890 0.8 102760
05:00n229997 0.3 102688
08:00ne229998 0.4 102658
11:00+1˚e1297100 0.1 1026124
14:00+1˚ene1297100 0.1 1025156
17:00e129899 0.1 102531
20:00se119899 0.1 102566
3 december, thu
thu323:00−1˚se119695 0.0 102522
02:00−1˚se129470 0.0 102423
05:00s119190 0.0 102424
08:00−2˚ese229473 0.0 102424
11:00+1˚se367791 0.0 1023548
14:00+2˚sse577789 0.0 1022788
17:00+2˚ese3886100 0.0 1021396
20:00+2˚se51193100 0.0 1021432
4 december, fri
fri423:00+4˚se51295100 0.0 1019516
02:00+5˚se61491100 0.0 1018627
05:00+5˚se61586100 0.0 1017612
08:00+4˚se7178781 0.0 1017519
11:00+7˚se91677100 0.0 1017754
14:00+8˚se9147695 0.0 1016808
17:00+7˚se9148097 0.0 1016610
20:00+6˚se8158792 0.0 1016658
5 december, sat
sat523:00+6˚se81586100 0.0 1016613
02:00+6˚se71391100 0.2 1016635
05:00+6˚se81494100 0.6 1015548
08:00+7˚ese61393100 0.7 1016517
11:00+8˚se81590100 0.0 1017577
14:00+9˚se8148499 0.0 1017699
17:00+9˚se81582100 0.0 1017718
20:00+7˚se81787100 0.0 1018593